Skip Page Navigation
NASA JPL Caltech
NASA Logo - Jet Propulsion Laboratory + View the NASA Portal
+ Near-Earth Object (NEO) Program
Search JPL
JPL Home Earth Solar System Stars & Galaxies Technology
JPL Solar System Dynamics
BODIES ORBITS EPHEMERIDES TOOLS PHYSICAL DATA DISCOVERY FAQ SITE MAP
JPL Small-Body Database Browser
Search: [ help ]  
18331 (1987 DQ6)
Classification: Main-belt Asteroid          SPK-ID: 2018331
Ephemeris | Orbit Diagram | Orbital Elements | Physical Parameters | Discovery Circumstances ]

[ show orbit diagram ]
Orbital Elements at Epoch 2457000.5 (2014-Dec-09.0) TDB
Reference: JPL 15 (heliocentric ecliptic J2000)
 Element Value Uncertainty (1-sigma)   Units 
e .0834311079812096 8.5755e-08  
a 3.10368663029143 3.57e-08 AU
q 2.844742615899749 2.6884e-07 AU
i 16.07240734938087 9.2617e-06 deg
node 352.4420549233038 2.0207e-05 deg
peri 17.25455074512471 4.1974e-05 deg
M 172.8238418335769 3.7325e-05 deg
tp 2456041.725710654482
(2012-Apr-24.22571065)
0.00020268 JED
period 1997.170879332505
5.47
3.4458e-05
9.434e-08
d
yr
n .1802549815468565 3.1101e-09 deg/d
Q 3.362630644683111 3.8678e-08 AU
  Orbit Determination Parameters
   # obs. used (total)      986  
   data-arc span      30415 days (83.27 yr)  
   first obs. used      1932-02-05  
   last obs. used      2015-05-15  
   planetary ephem.      DE431  
   SB-pert. ephem.      SB431-BIG16  
   condition code      0  
   fit RMS      .53093  
   data source      ORB  
   producer      Otto Matic  
   solution date      2015-Jun-04 16:31:21  

Additional Information
 Earth MOID = 1.84594 AU 
 T_jup = 3.156 
[ show covariance matrix ]

Ephemeris | Orbit Diagram | Orbital Elements | Physical Parameters | Discovery Circumstances ]

Physical Parameter Table
Parameter Symbol Value Units Sigma Reference Notes
absolute magnitude H 11.8 mag n/a MPO337413  
diameter diameter 25.28 km 1.6 IRAS-A-FPA-3-RDR-IMPS-V6.0 IRAS observations used: 4
geometric albedo albedo 0.0365   0.005 IRAS-A-FPA-3-RDR-IMPS-V6.0 IRAS observations used: 4

18331 (1987 DQ6)          Discovered 1987-Feb-24 by Debehogne, H. at La Silla
Reference: 20001111/Numbers.arcLast Updated: 2004-04-19

Alternate Designations
 1987 DQ6 = 1932 CM 
Ephemeris | Orbit Diagram | Orbital Elements | Physical Parameters | Discovery Circumstances ]
ABOUT SSD CREDITS/AWARDS PRIVACY/COPYRIGHT GLOSSARY LINKS
FirstGov 2015-Aug-29 00:18 UT
(server date/time)  
NASA Home Page
Site Manager:   Ryan S. Park
Webmaster  Alan B. Chamberlin